Regional Weather Roundup
Issued by NWS

Home | Current Version | Previous Version | Text Only | Print | Product List | Glossary Off
Versions: 1 2 3 4 5 6 7 8 9 10 11 12 13 14 15 16 17 18 19 20 21 22 23 24 25 26 27 28 29 30 31 32 33 34 35 36 37 38 39 40 41 42 43 44 45 46 47 48 49 50

000
ASUS43 KMPX 210210
RWRMN
WEATHER ROUNDUP FOR MINNESOTA
NATIONAL WEATHER SERVICE TWIN CITIES/CHANHASSEN MN
800 PM CST THU NOV 20 2014


NOTE: "FAIR" INDICATES FEW OR NO CLOUDS BELOW 12,000 FEET WITH NO
SIGNIFICANT WEATHER AND/OR OBSTRUCTIONS TO VISIBILITY. N/A MEANS
CURRENT SKY AND/OR WEATHER CONDITIONS ARE NOT AVAILABLE.

MNZ060>063-068>070-210300-
   Twin Cities Metro

CITY           SKY/WX    TMP DP  RH WIND       PRES   REMARKS
TWIN CITIES    PTCLDY    10   3  73 W5        30.23R WCI   2
ST PAUL        PTCLDY    12   2  64 W6        30.24R WCI   3
CRYSTAL        PTCLDY    11   1  64 SW5       30.22R WCI   3
BLAINE         CLEAR     12   5  73 CALM      30.21R
LAKEVILLE      CLEAR      7   1  78 W3        30.22R
EDEN PRAIRIE   PTCLDY     8   2  76 SW7       30.22R WCI  -3
SOUTH ST PAUL  PTCLDY    11   4  71 W5        30.23R WCI   3
LAKE ELMO      FAIR       1  -4  78 CALM      30.22S
$$
MNZ001>005-007-008-013>017-022>024-027-028-210300-
   Northwest Minnesota

CITY           SKY/WX    TMP DP  RH WIND       PRES   REMARKS
BEMIDJI        PTCLDY    -1  -5  84 CALM      30.10F
HALLOCK        PTCLDY     7   1  78 S13       30.06F WCI  -9
ROSEAU         PTCLDY    -2  -8  78 S8        30.07F WCI -17
WARROAD        MOCLDY     1  -4  78 S3        30.07F
THIEF RVR FALL MOCLDY     3  -4  72 SE7       30.08F WCI  -9
CROOKSTON      PTCLDY     9   1  72 S12       30.12F WCI  -6
FOSSTON        MOCLDY     1  -2  85 S6        30.11S WCI -10
DETROIT LAKES  MOCLDY     9   3  78 S3        30.13S
MOORHEAD       PTCLDY    12   9  85 S8        30.14F WCI   1
PARK RAPIDS    PTCLDY     0  -6  76 S3        30.12S
MAHNOMEN       FAIR       2  -3  79 S7        30.11S WCI -10
$$
MNZ006-009>011-018-025>026-210300-
   North Central Minnesota

CITY           SKY/WX    TMP DP  RH WIND       PRES   REMARKS
BAUDETTE       PTCLDY    -1  -6  79 SW5       30.07F WCI -11
FLAG ISLAND    PTCLDY     5  -2  72 SW6       30.06S WCI  -6
INTL FALLS     CLEAR    -11 -16  78 CALM      30.09S
WASKISH        PTCLDY     7   1  78 CALM      30.10F
BIG FORK       PTCLDY    -6  -9  84 CALM      30.11S
LONGVILLE      CLEAR     -2  -6  84 CALM      30.13S
GRAND RAPIDS   CLEAR      1  -9  60 CALM      30.10S
CRANE LAKE     CLEAR     -8 -11  84 CALM      30.13S
ORR            CLEAR     -2  -8  78 CALM      30.07S
COOK           CLEAR     -8  -9  92 CALM      30.10S
WALKER         FAIR       5  -4  68 W3        30.12S
$$
MNZ012-019>021-037-210300-
   Northeast Minnesota

CITY           SKY/WX    TMP DP  RH WIND       PRES   REMARKS
DULUTH         CLEAR      5  -4  66 W8        30.10S WCI  -8
ELY            CLEAR     -8  -9  92 CALM      30.08S
HIBBING        CLEAR     -6 -11  79 CALM      30.11R
EVELETH        CLEAR     -2  -8  78 W3        30.12R
DULUTH HARBOR  CLEAR     12   0  57 CALM      30.19R
TWO HARBORS    CLEAR      9   0  66 W3        30.10S
SILVER BAY     CLEAR      7   0  72 CALM      30.10R
GRAND MARAIS     N/A     11   1  64 NW18G32   30.06S WCI  -7
G MARAIS ARPRT PTCLDY     1  -4  78 W8        30.01R WCI -12
$$
MNZ029>031-032-039>041-046>048-054>057-064-210300-
   West Central Minnesota

CITY           SKY/WX    TMP DP  RH WIND       PRES   REMARKS
FERGUS FALLS   PTCLDY     7   1  78 S6        30.19S WCI  -3
WHEATON        PTCLDY     5   0  78 S7        30.18F WCI  -7
MORRIS         PTCLDY     1   0  92 SE5       30.17S WCI  -8
ALEXANDRIA     MOCLDY     5   1  83 SW7       30.16R WCI  -7
ELBOW LAKE       N/A      3   0  88 S8        30.16S WCI -11
WADENA         PTCLDY     0  -6  78 CALM      30.14S
GLENWOOD       PTCLDY     3   1  92 SW5       30.17R WCI  -6
APPLETON       PTCLDY     3   0  85 SE3       30.19F
BENSON         CLEAR      0  -2  92 CALM      30.19S
ORTONVILLE     PTCLDY     5   0  78 S3        30.17S
MADISON        PTCLDY     7   1  78 S6        30.20S WCI  -3
WILLMAR        FAIR       0  -6  78 CALM      30.21S
$$
MNZ033>034-036-042>043-049>051-058-059-210300-
   Central Minnesota

CITY           SKY/WX    TMP DP  RH WIND       PRES   REMARKS
ST CLOUD       PTCLDY     4  -2  76 CALM      30.19R
SAUK CENTRE    FAIR       0  -3  87 CALM      30.18R
PAYNESVILLE    PTCLDY    -2  -4  91 SW3       30.19S
AITKIN         PTCLDY     1  -6  71 CALM      30.14R
PINE RIVER     PTCLDY     0  -4  85 CALM      30.17S
BRAINERD       PTCLDY    -1  -6  79 S5        30.16R WCI -11
STAPLES        MOCLDY     1  -4  78 CALM      30.14S
LONG PRAIRIE   FAIR       0  -4  85 CALM      30.16S
LITTLE FALLS   PTCLDY    -2  -8  78 CALM      30.18S HAZE
LITCHFIELD     PTCLDY     5   3  92 CALM      30.21R
BUFFALO        PTCLDY     6   1  81 CALM      30.22R
MAPLE LAKE     PTCLDY     7   3  82 SW6       30.22R WCI  -3
$$
MNZ037-044-045-052-053-210300-
   East Central Minnesota

CITY           SKY/WX    TMP DP  RH WIND       PRES   REMARKS
PRINCETON      PTCLDY    -4  -9  77 CALM      30.19R
MORA             N/A    N/A N/A N/A MISG        N/A
CAMBRIDGE      MOCLDY     1  -6  71 CALM      30.18R
RUSH CITY      MOCLDY     2  -2  81 CALM      30.20R
MOOSE LAKE     PTCLDY     0  -6  78 CALM      30.15R
HINCKLEY       FAIR      -4  -6  92 CALM      30.17S
CLOQUET        CLEAR      1  -6  71 W5        30.13R WCI  -8
MCGREGOR       PTCLDY     1  -4  78 CALM      30.15S
$$
MNZ071>073-080-081-089-090-097-098-210300-
   Southwest Minnesota

CITY           SKY/WX    TMP DP  RH WIND       PRES   REMARKS
MONTEVIDEO     PTCLDY     7   1  78 CALM      30.21S
GRANITE FALLS  PTCLDY     4   1  87 S3        30.22R
CANBY          PTCLDY     5   2  87 S3        30.19S
MARSHALL       PTCLDY     7   0  72 CALM      30.18F
REDWOOD FALLS  PTCLDY     7   2  80 S3        30.22R
OLIVIA         PTCLDY     7   1  78 CALM      30.20S
PIPESTONE      PTCLDY     7   3  85 CALM      30.15S
WINDOM           N/A      5   1  85 CALM      30.19R
WORTHINGTON    PTCLDY     9   3  78 SW6       30.18S WCI  -1
JACKSON        MOCLDY    10   3  72 CALM      30.20R
TRACY          PTCLDY     7   3  83 SW3       30.19S
SLAYTON        PTCLDY     5   2  88 CALM      30.18R
$$
MNZ065>067-074>077-082>085-091>093-210300-
   South Central Minnesota

CITY           SKY/WX    TMP DP  RH WIND       PRES   REMARKS
MANKATO        PTCLDY    10   1  67 CALM      30.22R
NEW ULM        PTCLDY     5   1  85 CALM      30.22S
ST JAMES       PTCLDY     7   1  78 SW3       30.24R
FAIRMONT       PTCLDY     7   1  78 CALM      30.21S
GLENCOE        PTCLDY     6   3  87 W3        30.22R
FARIBAULT      PTCLDY     7   1  78 CALM      30.22R
OWATONNA       PTCLDY     1  -4  78 W5        30.21R WCI  -8
WASECA         PTCLDY     3  -4  72 SW3       30.23S
ALBERT LEA     PTCLDY     9   7  92 W1        30.21S
$$
MNZ078>079-086>088-094>096-210300-
   Southeast Minnesota

CITY           SKY/WX    TMP DP  RH WIND       PRES   REMARKS
ROCHESTER      PTCLDY     5  -1  76 W8        30.20R WCI  -8
RED WING         N/A      1  -4  78 CALM      30.23R
STANTON        PTCLDY     7   0  73 SW3       30.21S
DODGE CENTER   PTCLDY     3   0  85 W5        30.20R WCI  -6
WINONA         CLEAR     14   5  67 CALM      30.25R
AUSTIN         PTCLDY     7   3  85 W3        30.21R
PRESTON        PTCLDY     7   1  76 W7        30.21R WCI  -5
$$
ABBREVIATIONS USED IN REMARKS
   TC - TEMPERATURES IN CELSIUS
  WCI - WIND CHILL INDEX
   HX - HEAT INDEX
  VSB - VISIBILITY
$$



USA.gov is the U.S. government's official web portal to all federal, state and local government web resources and services.